Location: William D. McDowell Observatory
(40.7857°N, 74.1054°W)
Time: 15:32:53
(UTC-04:00)

N. Korean satellite - Visible Passes

Search period start: 21 September 2018 00:00
Search period end: 01 October 2018 00:00
Orbit: 458 x 511 km, 97.2° (Epoch: 20 September)

Date Brightness Start Highest point End Pass type
(mag) Time Alt. Az. Time Alt. Az. Time Alt. Az.
23 Sep 10.3 19:44:05 10° WSW 19:45:11 11° W 19:46:18 10° WNW visible
24 Sep 9.5 19:17:51 10° SSW 19:20:39 22° W 19:23:31 10° NW visible
26 Sep 10.2 06:20:54 10° ENE 06:23:02 14° E 06:25:09 10° SE visible
27 Sep 10.1 19:39:34 10° WSW 19:41:12 13° W 19:42:51 10° WNW visible
28 Sep 9.3 19:13:42 10° SSW 19:16:40 25° W 19:19:42 10° NW visible
30 Sep 10.4 06:17:14 10° ENE 06:19:04 13° E 06:20:53 10° ESE visible
